Back to catalog

STARLINK-33925

AliveCommunicationsVLEO
NORAD 63793·PAYLOAD·🇺🇸 United States

Launched May 2, 2025 from Cape Canaveral Space Force Station

Loading…

Next Passes (next 24 hours)

TLE

FreshSource: CelesTrak SupGP

Epoch: Sep 14, 2026, 14:04 UTC

1 63793C 25091U   26257.58659722 -.00013909  00000+0 -50438-3 0  2574
2 63793  43.0037  65.5337 0001474 260.0778 107.5761 15.27547784    10

Track STARLINK-33925 in real time with AllMySat

Download on the App Store